Location: Gro� Glienicke
(52.4675°N, 13.1079°E)
Time: 18:06:11
(UTC+00:00)

Cosmos 2297 - Pass Details

Date: 06 July 2020
Orbit: 835 x 859 km, 71.0° (Epoch: 13 August)

Event Time Altitude Azimuth Distance (km) Brightness Sun altitude
Rises 22:32:23 0° 327° (NNW) 3,446 8.2 -14.5°
Reaches altitude 10° 22:34:53 10° 323° (NW) 2,504 7.2 -14.5°
Maximum altitude 22:40:31 58° 246° (WSW) 995 4.0 -14.6°
Enters shadow 22:44:08 22° 175° (S) 1,780 4.7 -14.7°
